sat.trackr.live / text

‹ back to catalog

STARLINK-32040

NORAD 60109 · 2024-117U

PAYLOAD ACTIVE UNKNOWN

§ Identity

Operator
Country
US
Launch date
2024-06-23
Launch site
AFETR
Launch vehicle
Mass (kg)
RCS (m²)

Purposes: comms

External: N2YO · Heavens-Above · Gunter

§ Orbital elements

Epoch: 2026-05-25T02:55:41.454048Z

Period
94.11 min
Inclination
53.1612°
Eccentricity
0.0001256
Mean motion
15.30196988 rev/d
Perigee alt
474.4 km
Apogee alt
476.1 km
Semi-major
6,853.4 km
B*
6.8352e-5
RAAN
41.7492°
Arg perigee
78.6808°
Mean anomaly
281.4334°
Rev number
10,859

§ Raw data

STARLINK-320401 60109U 24117U   26145.12200757  .00001666  00000+0  68352-4 0  99992 60109  53.1612  41.7492 0001256  78.6808 281.4334 15.30196988108592

JSON: /api/v1/satellites/60109 · /tle

For live sub-satellite position, see the globe view (requires WebGL).

§ Visibility from observer

Set your observer location to see the next 7 days of passes ≥ 10°. The values pass through the URL so the page stays shareable.

No JS? Fill the form by hand. The geolocation button needs JavaScript.